| time (UTC) | temp F | wind direction | speed MPH | gust MPH | rain 1hr in | rain 24hr in | rain mn in | humidity % | barometer mb |
| 20260510211245 | 103 | 297 | 9.0 | 9.0 | 0.00 | 0.00 | 0.00 | 8 | 1011.4 |
| 20260510210815 | 103 | 303 | 2.0 | 8.0 | 0.00 | 0.00 | 0.00 | 8 | 1011.4 |
| 20260510210315 | 104 | 22 | 1.0 | 8.0 | 0.00 | 0.00 | 0.00 | 8 | 1011.7 |
| 20260510205815 | 104 | 200 | 3.0 | 7.0 | 0.00 | 0.00 | 0.00 | 9 | 1011.7 |
| 20260510205314 | 104 | 150 | 4.0 | 7.0 | 0.00 | 0.00 | 0.00 | 8 | 1011.8 |
| 20260510204814 | 103 | 294 | 2.0 | 8.0 | 0.00 | 0.00 | 0.00 | 8 | 1011.8 |
| 20260510204314 | 103 | 283 | 1.0 | 8.0 | 0.00 | 0.00 | 0.00 | 8 | 1011.9 |
| 20260510203814 | 103 | 226 | 6.0 | 7.0 | 0.00 | 0.00 | 0.00 | 9 | 1012.0 |
| 20260510203314 | 104 | 283 | 4.0 | 7.0 | 0.00 | 0.00 | 0.00 | 8 | 1012.0 |
| 20260510202813 | 104 | 217 | 2.0 | 7.0 | 0.00 | 0.00 | 0.00 | 8 | 1012.0 |
| 20260510202313 | 103 | 242 | 4.0 | 6.0 | 0.00 | 0.00 | 0.00 | 9 | 1012.1 |
| 20260510201813 | 102 | 293 | 2.0 | 6.0 | 0.00 | 0.00 | 0.00 | 9 | 1012.0 |
| 20260510200813 | 103 | 282 | 2.0 | 7.0 | 0.00 | 0.00 | 0.00 | 9 | 1012.3 |
| 20260510195813 | 102 | 333 | 1.0 | 8.0 | 0.00 | 0.00 | 0.00 | 9 | 1012.1 |
| 20260510195313 | 102 | 186 | 3.0 | 8.0 | 0.00 | 0.00 | 0.00 | 9 | 1012.6 |
| 20260510194813 | 102 | 253 | 1.0 | 8.0 | 0.00 | 0.00 | 0.00 | 8 | 1012.6 |
| 20260510194313 | 102 | 147 | 3.0 | 6.0 | 0.00 | 0.00 | 0.00 | 9 | 1012.6 |
| 20260510193812 | 102 | 231 | 3.0 | 6.0 | 0.00 | 0.00 | 0.00 | 9 | 1012.7 |
| 20260510192812 | 101 | 117 | 2.0 | 6.0 | 0.00 | 0.00 | 0.00 | 9 | 1012.6 |
| 20260510192312 | 101 | 187 | 2.0 | 7.0 | 0.00 | 0.00 | 0.00 | 9 | 1012.7 |
| 20260510191312 | 101 | 233 | 2.0 | 7.0 | 0.00 | 0.00 | 0.00 | 9 | 1012.7 |
| 20260510190811 | 101 | 157 | 4.0 | 7.0 | 0.00 | 0.00 | 0.00 | 9 | 1012.7 |
| 20260510190311 | 101 | 177 | 2.0 | 7.0 | 0.00 | 0.00 | 0.00 | 9 | 1013.0 |
| 20260510185811 | 100 | 153 | 1.0 | 6.0 | 0.00 | 0.00 | 0.00 | 9 | 1012.9 |
| 20260510185311 | 100 | 173 | 3.0 | 5.0 | 0.00 | 0.00 | 0.00 | 9 | 1013.3 |
| 20260510184811 | 100 | 225 | 0.0 | 6.0 | 0.00 | 0.00 | 0.00 | 9 | 1013.4 |
| 20260510184311 | 100 | 178 | 4.0 | 6.0 | 0.00 | 0.00 | 0.00 | 9 | 1013.4 |
| 20260510183310 | 99 | 150 | 4.0 | 8.0 | 0.00 | 0.00 | 0.00 | 9 | 1013.5 |
| 20260510182810 | 100 | 305 | 2.0 | 8.0 | 0.00 | 0.00 | 0.00 | 9 | 1013.5 |
| 20260510182310 | 99 | 210 | 2.0 | 6.0 | 0.00 | 0.00 | 0.00 | 9 | 1013.6 |
| 20260510181810 | 99 | 231 | 3.0 | 7.0 | 0.00 | 0.00 | 0.00 | 9 | 1013.6 |
| 20260510181310 | 99 | 229 | 2.0 | 7.0 | 0.00 | 0.00 | 0.00 | 9 | 1013.5 |
| 20260510180809 | 98 | 219 | 4.0 | 6.0 | 0.00 | 0.00 | 0.00 | 9 | 1013.4 |
| 20260510180310 | 98 | 113 | 3.0 | 5.0 | 0.00 | 0.00 | 0.00 | 9 | 1013.5 |
| 20260510175309 | 98 | 136 | 2.0 | 6.0 | 0.00 | 0.00 | 0.00 | 9 | 1013.4 |
| 20260510174809 | 98 | 278 | 0.0 | 6.0 | 0.00 | 0.00 | 0.00 | 9 | 1013.4 |
| 20260510174309 | 98 | 124 | 1.0 | 5.0 | 0.00 | 0.00 | 0.00 | 9 | 1013.6 |
| 20260510173808 | 96 | 105 | 2.0 | 5.0 | 0.00 | 0.00 | 0.00 | 10 | 1013.4 |
| 20260510172309 | 96 | 131 | 0.0 | 5.0 | 0.00 | 0.00 | 0.00 | 10 | 1013.4 |
| 20260510171808 | 95 | 172 | 0.0 | 6.0 | 0.00 | 0.00 | 0.00 | 10 | 1013.5 |
| 20260510171308 | 95 | 140 | 0.0 | 6.0 | 0.00 | 0.00 | 0.00 | 10 | 1013.4 |
| 20260510170808 | 95 | 190 | 1.0 | 4.0 | 0.00 | 0.00 | 0.00 | 10 | 1013.4 |
| 20260510170308 | 94 | 335 | 2.0 | 4.0 | 0.00 | 0.00 | 0.00 | 10 | 1013.3 |
| 20260510165807 | 94 | 241 | 1.0 | 5.0 | 0.00 | 0.00 | 0.00 | 10 | 1013.2 |
| 20260510165308 | 94 | 75 | 2.0 | 5.0 | 0.00 | 0.00 | 0.00 | 11 | 1013.2 |
| 20260510164808 | 94 | 100 | 0.0 | 4.0 | 0.00 | 0.00 | 0.00 | 10 | 1013.3 |
| 20260510164307 | 94 | 220 | 2.0 | 5.0 | 0.00 | 0.00 | 0.00 | 10 | 1013.3 |
| 20260510163807 | 93 | 161 | 2.0 | 5.0 | 0.00 | 0.00 | 0.00 | 11 | 1013.1 |
| 20260510163307 | 93 | 173 | 4.0 | 4.0 | 0.00 | 0.00 | 0.00 | 11 | 1013.2 |
| 20260510162807 | 93 | 158 | 1.0 | 3.0 | 0.00 | 0.00 | 0.00 | 11 | 1013.1 |
| 20260510162307 | 93 | 226 | 0.0 | 3.0 | 0.00 | 0.00 | 0.00 | 11 | 1013.2 |
| 20260510161807 | 93 | 68 | 0.0 | 3.0 | 0.00 | 0.00 | 0.00 | 11 | 1013.2 |
| 20260510161306 | 92 | 212 | 1.0 | 4.0 | 0.00 | 0.00 | 0.00 | 11 | 1013.2 |
| 20260510160806 | 92 | 238 | 0.0 | 4.0 | 0.00 | 0.00 | 0.00 | 11 | 1013.2 |
| 20260510160306 | 92 | 146 | 2.0 | 4.0 | 0.00 | 0.00 | 0.00 | 11 | 1013.1 |
| 20260510155806 | 91 | 154 | 1.0 | 5.0 | 0.00 | 0.00 | 0.00 | 11 | 1012.9 |
| 20260510155306 | 91 | 204 | 0.0 | 5.0 | 0.00 | 0.00 | 0.00 | 12 | 1012.9 |
| 20260510154806 | 91 | 213 | 1.0 | 4.0 | 0.00 | 0.00 | 0.00 | 12 | 1012.9 |
| 20260510154306 | 90 | 163 | 2.0 | 4.0 | 0.00 | 0.00 | 0.00 | 12 | 1012.8 |
| 20260510153305 | 90 | 129 | 0.0 | 5.0 | 0.00 | 0.00 | 0.00 | 12 | 1012.9 |
| 20260510152805 | 89 | 100 | 4.0 | 4.0 | 0.00 | 0.00 | 0.00 | 12 | 1012.7 |
| 20260510152307 | 89 | 139 | 2.0 | 4.0 | 0.00 | 0.00 | 0.00 | 13 | 1012.7 |
| 20260510151805 | 89 | 160 | 1.0 | 4.0 | 0.00 | 0.00 | 0.00 | 12 | 1012.6 |
| 20260510150804 | 88 | 131 | 2.0 | 7.0 | 0.00 | 0.00 | 0.00 | 13 | 1012.6 |
| 20260510145306 | 87 | 218 | 3.0 | 5.0 | 0.00 | 0.00 | 0.00 | 13 | 1013.0 |
| 20260510144304 | 86 | 156 | 3.0 | 5.0 | 0.00 | 0.00 | 0.00 | 14 | 1012.9 |
| 20260510143803 | 86 | 154 | 3.0 | 5.0 | 0.00 | 0.00 | 0.00 | 16 | 1013.0 |
| 20260510143303 | 85 | 144 | 2.0 | 3.0 | 0.00 | 0.00 | 0.00 | 17 | 1012.9 |
| 20260510142804 | 84 | 146 | 0.0 | 3.0 | 0.00 | 0.00 | 0.00 | 18 | 1012.9 |
| 20260510142306 | 84 | 103 | 1.0 | 2.0 | 0.00 | 0.00 | 0.00 | 18 | 1012.9 |
| 20260510140803 | 81 | 110 | 2.0 | 2.0 | 0.00 | 0.00 | 0.00 | 19 | 1012.4 |
| 20260510140303 | 81 | 116 | 1.0 | 2.0 | 0.00 | 0.00 | 0.00 | 20 | 1012.4 |
| 20260510135803 | 80 | 167 | 1.0 | 1.0 | 0.00 | 0.00 | 0.00 | 21 | 1012.4 |
| 20260510134802 | 79 | 167 | 0.0 | 1.0 | 0.00 | 0.00 | 0.00 | 22 | 1012.5 |
| 20260510134302 | 78 | 167 | 0.0 | 1.0 | 0.00 | 0.00 | 0.00 | 22 | 1012.5 |
| 20260510133302 | 76 | 96 | 0.0 | 1.0 | 0.00 | 0.00 | 0.00 | 21 | 1012.2 |
| 20260510132801 | 75 | 96 | 0.0 | 1.0 | 0.00 | 0.00 | 0.00 | 21 | 1012.1 |
| 20260510132305 | 74 | 96 | 0.0 | 1.0 | 0.00 | 0.00 | 0.00 | 22 | 1011.9 |
| 20260510131801 | 74 | 124 | 0.0 | 1.0 | 0.00 | 0.00 | 0.00 | 23 | 1011.9 |
| 20260510131301 | 73 | 129 | 0.0 | 2.0 | 0.00 | 0.00 | 0.00 | 21 | 1011.7 |
| 20260510130801 | 72 | 119 | 0.0 | 2.0 | 0.00 | 0.00 | 0.00 | 22 | 1011.6 |
| 20260510130301 | 72 | 92 | 0.0 | 3.0 | 0.00 | 0.00 | 0.00 | 22 | 1011.7 |
| 20260510125800 | 71 | 89 | 0.0 | 3.0 | 0.00 | 0.00 | 0.00 | 22 | 1011.4 |
| 20260510125301 | 71 | 98 | 1.0 | 3.0 | 0.00 | 0.00 | 0.00 | 23 | 1011.6 |
| 20260510124801 | 71 | 76 | 2.0 | 2.0 | 0.00 | 0.00 | 0.00 | 23 | 1011.7 |
| 20260510124300 | 71 | 94 | 1.0 | 1.0 | 0.00 | 0.00 | 0.00 | 23 | 1011.6 |
| 20260510123800 | 72 | 96 | 0.0 | 3.0 | 0.00 | 0.00 | 0.00 | 23 | 1011.5 |
| 20260510122800 | 71 | 128 | 1.0 | 3.0 | 0.00 | 0.00 | 0.00 | 23 | 1011.3 |
| 20260510122300 | 71 | 113 | 0.0 | 2.0 | 0.00 | 0.00 | 0.00 | 23 | 1011.3 |
| 20260510121759 | 71 | 100 | 0.0 | 2.0 | 0.00 | 0.00 | 0.00 | 23 | 1011.3 |
| 20260510120759 | 71 | 97 | 1.0 | 1.0 | 0.00 | 0.00 | 0.00 | 23 | 1011.2 |
| 20260510120259 | 71 | 75 | 0.0 | 1.0 | 0.00 | 0.00 | 0.00 | 23 | 1011.1 |
| 20260510115259 | 71 | 101 | 0.0 | 2.0 | 0.00 | 0.00 | 0.00 | 22 | 1011.5 |
| 20260510114758 | 71 | 77 | 0.0 | 2.0 | 0.00 | 0.00 | 0.00 | 22 | 1011.5 |
| 20260510114258 | 71 | 90 | 0.0 | 1.0 | 0.00 | 0.00 | 0.00 | 23 | 1011.3 |
| 20260510113759 | 71 | 77 | 0.0 | 1.0 | 0.00 | 0.00 | 0.00 | 23 | 1011.3 |
| 20260510113258 | 71 | 127 | 0.0 | 1.0 | 0.00 | 0.00 | 0.00 | 23 | 1011.3 |
| 20260510112758 | 71 | 105 | 0.0 | 1.0 | 0.00 | 0.00 | 0.00 | 22 | 1011.2 |
| 20260510112258 | 71 | 105 | 0.0 | 0.0 | 0.00 | 0.00 | 0.00 | 23 | 1011.3 |
| 20260510111758 | 72 | 105 | 0.0 | 1.0 | 0.00 | 0.00 | 0.00 | 21 | 1011.2 |
| 20260510110757 | 73 | 74 | 0.0 | 2.0 | 0.00 | 0.00 | 0.00 | 21 | 1011.3 |
| 20260510110258 | 74 | 80 | 0.0 | 2.0 | 0.00 | 0.00 | 0.00 | 20 | 1011.2 |
| 20260510105757 | 73 | 79 | 1.0 | 3.0 | 0.00 | 0.00 | 0.00 | 20 | 1011.1 |
| 20260510105257 | 73 | 71 | 1.0 | 4.0 | 0.00 | 0.00 | 0.00 | 21 | 1011.2 |
| 20260510104757 | 72 | 57 | 2.0 | 4.0 | 0.00 | 0.00 | 0.00 | 22 | 1011.1 |
| 20260510103757 | 72 | 96 | 0.0 | 1.0 | 0.00 | 0.00 | 0.00 | 24 | 1011.0 |
| 20260510102756 | 73 | 129 | 1.0 | 2.0 | 0.00 | 0.00 | 0.00 | 22 | 1010.9 |
| 20260510102256 | 72 | 122 | 0.0 | 2.0 | 0.00 | 0.00 | 0.00 | 23 | 1010.8 |
| 20260510101256 | 72 | 229 | 0.0 | 2.0 | 0.00 | 0.00 | 0.00 | 26 | 1010.8 |
| 20260510100255 | 71 | 188 | 0.0 | 1.0 | 0.00 | 0.00 | 0.00 | 24 | 1010.5 |
| 20260510095756 | 72 | 70 | 0.0 | 1.0 | 0.00 | 0.00 | 0.00 | 23 | 1010.5 |
| 20260510095256 | 72 | 70 | 0.0 | 1.0 | 0.00 | 0.00 | 0.00 | 24 | 1010.5 |
| 20260510094755 | 71 | 70 | 1.0 | 1.0 | 0.00 | 0.00 | 0.00 | 24 | 1010.4 |
| 20260510094255 | 71 | 70 | 0.0 | 1.0 | 0.00 | 0.00 | 0.00 | 25 | 1010.4 |
| 20260510093755 | 71 | 70 | 1.0 | 1.0 | 0.00 | 0.00 | 0.00 | 25 | 1010.4 |
| 20260510093255 | 70 | 70 | 0.0 | 1.0 | 0.00 | 0.00 | 0.00 | 26 | 1010.4 |
| 20260510092755 | 71 | 70 | 0.0 | 1.0 | 0.00 | 0.00 | 0.00 | 25 | 1010.4 |
| 20260510092255 | 71 | 70 | 0.0 | 1.0 | 0.00 | 0.00 | 0.00 | 26 | 1010.4 |
| 20260510091754 | 72 | 70 | 0.0 | 1.0 | 0.00 | 0.00 | 0.00 | 24 | 1010.4 |
| 20260510091254 | 72 | 70 | 0.0 | 1.0 | 0.00 | 0.00 | 0.00 | 23 | 1010.5 |
| 20260510090754 | 71 | 70 | 0.0 | 1.0 | 0.00 | 0.00 | 0.00 | 24 | 1010.3 |
| 20260510085754 | 71 | 143 | 0.0 | 1.0 | 0.00 | 0.00 | 0.00 | 24 | 1010.2 |
| 20260510085254 | 72 | 143 | 0.0 | 1.0 | 0.00 | 0.00 | 0.00 | 25 | 1010.4 |
| 20260510084253 | 72 | 86 | 0.0 | 1.0 | 0.00 | 0.00 | 0.00 | 23 | 1010.3 |
| 20260510083753 | 72 | 85 | 0.0 | 1.0 | 0.00 | 0.00 | 0.00 | 24 | 1010.2 |
| 20260510082753 | 73 | 68 | 0.0 | 1.0 | 0.00 | 0.00 | 0.00 | 23 | 1010.3 |
| 20260510081752 | 75 | 1 | 0.0 | 1.0 | 0.00 | 0.00 | 0.00 | 21 | 1010.4 |
| 20260510081253 | 76 | 348 | 0.0 | 1.0 | 0.00 | 0.00 | 0.00 | 20 | 1010.4 |
| 20260510080752 | 76 | 347 | 0.0 | 0.0 | 0.00 | 0.00 | 0.00 | 19 | 1010.5 |
| 20260510080252 | 77 | 348 | 0.0 | 0.0 | 0.00 | 0.00 | 0.00 | 18 | 1010.5 |
| 20260510075752 | 78 | 311 | 0.0 | 0.0 | 0.00 | 0.00 | 0.00 | 18 | 1010.6 |
| 20260510075252 | 79 | 309 | 0.0 | 0.0 | 0.00 | 0.00 | 0.00 | 17 | 1010.6 |
| 20260510074752 | 81 | 309 | 0.0 | 0.0 | 0.00 | 0.00 | 0.00 | 15 | 1010.7 |
| 20260510074251 | 82 | 309 | 0.0 | 0.0 | 0.00 | 0.00 | 0.00 | 15 | 1010.8 |
| 20260510073752 | 83 | 309 | 0.0 | 0.0 | 0.00 | 0.00 | 0.00 | 14 | 1010.8 |
| 20260510073251 | 83 | 309 | 0.0 | 1.0 | 0.00 | 0.00 | 0.00 | 14 | 1010.8 |
| 20260510072751 | 83 | 308 | 0.0 | 1.0 | 0.00 | 0.00 | 0.00 | 14 | 1010.8 |
| 20260510072251 | 84 | 316 | 0.0 | 1.0 | 0.00 | 0.00 | 0.00 | 14 | 1011.0 |
| 20260510071751 | 84 | 319 | 0.0 | 2.0 | 0.00 | 0.00 | 0.00 | 14 | 1010.9 |
| 20260510070750 | 85 | 335 | 0.0 | 2.0 | 0.00 | 0.00 | 0.00 | 13 | 1010.9 |
| 20260510070250 | 85 | 358 | 0.0 | 2.0 | 0.00 | 0.00 | 0.00 | 13 | 1010.9 |
| 20260510065820 | 85 | 328 | 0.0 | 1.0 | 0.00 | 0.00 | 0.00 | 13 | 1010.9 |
| 20260510064750 | 86 | 359 | 0.0 | 5.0 | 0.00 | 0.00 | 0.00 | 13 | 1010.7 |
| 20260510064250 | 86 | 1 | 0.0 | 5.0 | 0.00 | 0.00 | 0.00 | 13 | 1010.7 |
| 20260510063750 | 85 | 345 | 1.0 | 4.0 | 0.00 | 0.00 | 0.00 | 13 | 1010.6 |
| 20260510063249 | 85 | 353 | 1.0 | 2.0 | 0.00 | 0.00 | 0.00 | 13 | 1010.6 |
| 20260510061749 | 85 | 4 | 0.0 | 3.0 | 0.00 | 0.00 | 0.00 | 14 | 1010.5 |
| 20260510061249 | 85 | 8 | 1.0 | 3.0 | 0.00 | 0.00 | 0.00 | 14 | 1010.5 |
| 20260510060749 | 85 | 37 | 0.0 | 3.0 | 0.00 | 0.00 | 0.00 | 14 | 1010.5 |
| 20260510060249 | 85 | 6 | 0.0 | 3.0 | 0.00 | 0.00 | 0.00 | 13 | 1010.5 |
| 20260510055819 | 85 | 25 | 1.0 | 3.0 | 0.00 | 0.00 | 0.00 | 13 | 1010.4 |
| 20260510054748 | 85 | 14 | 0.0 | 2.0 | 0.00 | 0.00 | 0.00 | 13 | 1010.2 |
| 20260510054248 | 85 | 20 | 0.0 | 4.0 | 0.00 | 0.00 | 0.00 | 13 | 1010.2 |
| 20260510053748 | 85 | 5 | 1.0 | 4.0 | 0.00 | 0.00 | 0.00 | 13 | 1010.2 |
| 20260510053318 | 85 | 24 | 0.0 | 1.0 | 0.00 | 0.00 | 0.00 | 13 | 1010.1 |
| 20260510052748 | 85 | 2 | 0.0 | 2.0 | 0.00 | 0.00 | 0.00 | 13 | 1010.2 |
| 20260510052318 | 85 | 11 | 1.0 | 2.0 | 0.00 | 0.00 | 0.00 | 13 | 1010.1 |
| 20260510051747 | 85 | 6 | 0.0 | 2.0 | 0.00 | 0.00 | 0.00 | 13 | 1010.2 |
| 20260510051247 | 85 | 45 | 0.0 | 2.0 | 0.00 | 0.00 | 0.00 | 13 | 1010.1 |
| 20260510050747 | 85 | 25 | 1.0 | 2.0 | 0.00 | 0.00 | 0.00 | 13 | 1010.2 |
| 20260510050247 | 85 | 338 | 1.0 | 1.0 | 0.00 | 0.00 | 0.00 | 14 | 1010.1 |
| 20260510045747 | 85 | 44 | 0.0 | 1.0 | 0.00 | 0.00 | 0.00 | 14 | 1010.1 |
| 20260510044816 | 84 | 21 | 0.0 | 1.0 | 0.00 | 0.00 | 0.00 | 14 | 1009.7 |
| 20260510043316 | 83 | 27 | 0.0 | 1.0 | 0.00 | 0.00 | 0.00 | 15 | 1009.6 |
| 20260510042746 | 83 | 27 | 0.0 | 1.0 | 0.00 | 0.00 | 0.00 | 16 | 1009.5 |
| 20260510042246 | 84 | 27 | 0.0 | 1.0 | 0.00 | 0.00 | 0.00 | 16 | 1009.5 |
| 20260510041746 | 84 | 27 | 0.0 | 1.0 | 0.00 | 0.00 | 0.00 | 15 | 1009.4 |
| 20260510041246 | 84 | 27 | 1.0 | 1.0 | 0.00 | 0.00 | 0.00 | 16 | 1009.2 |
| 20260510040746 | 84 | 349 | 1.0 | 1.0 | 0.00 | 0.00 | 0.00 | 16 | 1009.4 |
| 20260510040315 | 84 | 349 | 0.0 | 0.0 | 0.00 | 0.00 | 0.00 | 16 | 1009.4 |
| 20260510035815 | 84 | 349 | 0.0 | 0.0 | 0.00 | 0.00 | 0.00 | 16 | 1009.3 |
| 20260510035245 | 85 | 349 | 0.0 | 0.0 | 0.00 | 0.00 | 0.00 | 17 | 1009.2 |
| 20260510034815 | 85 | 349 | 0.0 | 1.0 | 0.00 | 0.00 | 0.00 | 16 | 1009.1 |
| 20260510034314 | 85 | 349 | 0.0 | 1.0 | 0.00 | 0.00 | 0.00 | 16 | 1009.1 |
| 20260510033814 | 85 | 349 | 0.0 | 0.0 | 0.00 | 0.00 | 0.00 | 16 | 1009.0 |
| 20260510033314 | 86 | 349 | 0.0 | 1.0 | 0.00 | 0.00 | 0.00 | 16 | 1009.1 |
| 20260510032814 | 86 | 349 | 0.0 | 1.0 | 0.00 | 0.00 | 0.00 | 15 | 1009.0 |
| 20260510032314 | 87 | 349 | 0.0 | 1.0 | 0.00 | 0.00 | 0.00 | 15 | 1009.0 |
| 20260510031814 | 87 | 349 | 0.0 | 1.0 | 0.00 | 0.00 | 0.00 | 15 | 1008.9 |
| 20260510031314 | 88 | 349 | 1.0 | 1.0 | 0.00 | 0.00 | 0.00 | 15 | 1008.9 |
| 20260510030814 | 88 | 349 | 0.0 | 1.0 | 0.00 | 0.00 | 0.00 | 14 | 1008.7 |
| 20260510030313 | 89 | 301 | 0.0 | 1.0 | 0.00 | 0.00 | 0.00 | 14 | 1008.8 |
| 20260510025814 | 90 | 301 | 0.0 | 1.0 | 0.00 | 0.00 | 0.00 | 13 | 1008.7 |
| 20260510025314 | 90 | 301 | 0.0 | 1.0 | 0.00 | 0.00 | 0.00 | 13 | 1008.5 |
| 20260510024313 | 92 | 300 | 0.0 | 2.0 | 0.00 | 0.00 | 0.00 | 12 | 1008.3 |
| 20260510023813 | 92 | 288 | 0.0 | 2.0 | 0.00 | 0.00 | 0.00 | 12 | 1008.4 |
| 20260510023313 | 93 | 320 | 0.0 | 3.0 | 0.00 | 0.00 | 0.00 | 12 | 1008.3 |
| 20260510022812 | 93 | 288 | 0.0 | 4.0 | 0.00 | 0.00 | 0.00 | 12 | 1008.2 |
| 20260510021812 | 94 | 320 | 1.0 | 5.0 | 0.00 | 0.00 | 0.00 | 11 | 1008.2 |
| 20260510020812 | 95 | 295 | 3.0 | 8.0 | 0.00 | 0.00 | 0.00 | 11 | 1008.1 |
| 20260510020312 | 96 | 317 | 2.0 | 8.0 | 0.00 | 0.00 | 0.00 | 10 | 1008.3 |
| 20260510014812 | 97 | 274 | 6.0 | 7.0 | 0.00 | 0.00 | 0.00 | 10 | 1007.9 |
| 20260510014311 | 97 | 285 | 4.0 | 8.0 | 0.00 | 0.00 | 0.00 | 10 | 1007.9 |
| 20260510013811 | 98 | 298 | 0.0 | 8.0 | 0.00 | 0.00 | 0.00 | 10 | 1007.8 |
| 20260510013311 | 98 | 286 | 4.0 | 8.0 | 0.00 | 0.00 | 0.00 | 10 | 1007.9 |
| 20260510012811 | 98 | 273 | 1.0 | 8.0 | 0.00 | 0.00 | 0.00 | 10 | 1007.9 |
| 20260510012310 | 99 | 326 | 3.0 | 7.0 | 0.00 | 0.00 | 0.00 | 10 | 1007.8 |
| 20260510011810 | 99 | 289 | 0.0 | 7.0 | 0.00 | 0.00 | 0.00 | 10 | 1007.7 |
| 20260510010810 | 99 | 302 | 4.0 | 8.0 | 0.00 | 0.00 | 0.00 | 10 | 1007.8 |
| 20260510010310 | 99 | 306 | 6.0 | 8.0 | 0.00 | 0.00 | 0.00 | 10 | 1007.8 |
| 20260510005810 | 100 | 297 | 1.0 | 5.0 | 0.00 | 0.00 | 0.00 | 9 | 1007.9 |
| 20260510005310 | 100 | 219 | 0.0 | 7.0 | 0.00 | 0.00 | 0.00 | 10 | 1007.5 |
| 20260510004810 | 100 | 283 | 2.0 | 7.0 | 0.00 | 0.00 | 0.00 | 9 | 1007.5 |
| 20260510003810 | 101 | 293 | 3.0 | 4.0 | 0.00 | 0.00 | 0.00 | 9 | 1007.6 |
| 20260510003309 | 100 | 251 | 1.0 | 6.0 | 0.00 | 0.00 | 0.00 | 9 | 1007.7 |
| 20260510002809 | 100 | 270 | 1.0 | 6.0 | 0.00 | 0.00 | 0.00 | 9 | 1007.6 |
| 20260510002309 | 100 | 291 | 2.0 | 6.0 | 0.00 | 0.00 | 0.00 | 9 | 1007.7 |
| 20260510001809 | 100 | 290 | 2.0 | 6.0 | 0.00 | 0.00 | 0.00 | 9 | 1007.7 |
| 20260510001308 | 101 | 288 | 2.0 | 6.0 | 0.00 | 0.00 | 0.00 | 9 | 1007.8 |
| 20260510000808 | 101 | 284 | 2.0 | 11.0 | 0.00 | 0.00 | 0.00 | 9 | 1007.8 |
| 20260509234808 | 101 | 7 | 2.0 | 8.0 | 0.00 | 0.00 | 0.00 | 9 | 1008.2 |
| 20260509234308 | 102 | 281 | 3.0 | 7.0 | 0.00 | 0.00 | 0.00 | 9 | 1008.0 |
| 20260509233808 | 101 | 209 | 0.0 | 11.0 | 0.00 | 0.00 | 0.00 | 10 | 1008.0 |
| 20260509233308 | 101 | 263 | 4.0 | 11.0 | 0.00 | 0.00 | 0.00 | 9 | 1008.2 |
| 20260509232807 | 101 | 278 | 2.0 | 6.0 | 0.00 | 0.00 | 0.00 | 9 | 1008.1 |
| 20260509232307 | 101 | 266 | 3.0 | 8.0 | 0.00 | 0.00 | 0.00 | 9 | 1008.2 |
| 20260509231807 | 102 | 282 | 3.0 | 11.0 | 0.00 | 0.00 | 0.00 | 9 | 1008.3 |
| 20260509231307 | 101 | 240 | 2.0 | 11.0 | 0.00 | 0.00 | 0.00 | 9 | 1008.2 |
| 20260509230807 | 101 | 307 | 1.0 | 7.0 | 0.00 | 0.00 | 0.00 | 9 | 1008.3 |
| 20260509230306 | 101 | 282 | 2.0 | 6.0 | 0.00 | 0.00 | 0.00 | 10 | 1008.3 |
| 20260509225806 | 101 | 274 | 0.0 | 12.0 | 0.00 | 0.00 | 0.00 | 10 | 1008.5 |
| 20260509225306 | 101 | 247 | 5.0 | 12.0 | 0.00 | 0.00 | 0.00 | 9 | 1008.6 |
| 20260509224806 | 101 | 283 | 6.0 | 10.0 | 0.00 | 0.00 | 0.00 | 9 | 1008.7 |
| 20260509224306 | 100 | 253 | 5.0 | 11.0 | 0.00 | 0.00 | 0.00 | 10 | 1008.6 |
| 20260509223806 | 100 | 5 | 3.0 | 11.0 | 0.00 | 0.00 | 0.00 | 9 | 1008.6 |
| 20260509223305 | 101 | 289 | 7.0 | 9.0 | 0.00 | 0.00 | 0.00 | 9 | 1008.7 |
| 20260509222806 | 101 | 309 | 4.0 | 8.0 | 0.00 | 0.00 | 0.00 | 9 | 1008.8 |
| 20260509222307 | 102 | 264 | 3.0 | 8.0 | 0.00 | 0.00 | 0.00 | 9 | 1008.9 |
| 20260509221805 | 101 | 272 | 2.0 | 11.0 | 0.00 | 0.00 | 0.00 | 10 | 1008.8 |
| 20260509221305 | 101 | 192 | 2.0 | 11.0 | 0.00 | 0.00 | 0.00 | 10 | 1008.9 |
| 20260509220805 | 101 | 252 | 2.0 | 8.0 | 0.00 | 0.00 | 0.00 | 10 | 1009.0 |
| 20260509220305 | 100 | 229 | 4.0 | 8.0 | 0.00 | 0.00 | 0.00 | 10 | 1009.0 |
| 20260509215805 | 100 | 295 | 3.0 | 9.0 | 0.00 | 0.00 | 0.00 | 10 | 1009.2 |
| 20260509215306 | 100 | 279 | 4.0 | 9.0 | 0.00 | 0.00 | 0.00 | 10 | 1009.3 |
| 20260509214805 | 100 | 309 | 4.0 | 11.0 | 0.00 | 0.00 | 0.00 | 11 | 1009.4 |
| 20260509214304 | 100 | 286 | 2.0 | 11.0 | 0.00 | 0.00 | 0.00 | 10 | 1009.5 |
| 20260509213804 | 100 | 272 | 3.0 | 6.0 | 0.00 | 0.00 | 0.00 | 10 | 1009.6 |
| 20260509213304 | 101 | 304 | 3.0 | 10.0 | 0.00 | 0.00 | 0.00 | 10 | 1009.9 |
| 20260509212804 | 100 | 307 | 3.0 | 10.0 | 0.00 | 0.00 | 0.00 | 10 | 1009.9 |
| 20260509211804 | 100 | 295 | 2.0 | 9.0 | 0.00 | 0.00 | 0.00 | 11 | 1009.9 |